Flag for Turkmenistan Weather past 2 weeks in Ashgabat, Turkmenistan

Now
32 °F

Mixture of precip. Mostly cloudy.


Feels Like: 29 °F
Forecast: 24 / 39 °F
Wind: 3 mph from Northwest

Location: Ashgabat

Current Time: Jan 31, 2015 at 9:20:56 PM

Latest Report: Jan 31, 2015 at 8:30 PM


Visibility: 3 mi

Pressure: 30.18 "Hg

Humidity: 100%

Dew point: 32 °F

Location of AshgabatLocation

Historic Weather in Ashgabat — Graph

°F

Ashgabat temperature yesterday

Maximum temperature yesterday: 52 °F (at 3:00 PM)
Minimum temperature yesterday: 37 °F (at 1:00 AM)
Average temperature yesterday: 44 °F

Past Weeks' High & Low Weather Summary

 TemperatureHumidityPressure
High52 °F (Jan 30, 3:00 PM)100% (Jan 16, 10:00 PM)30.60 "Hg (Jan 16, 10:00 PM)
Low23 °F (Jan 26, 5:00 AM)40% (Jan 22, 2:00 PM)29.86 "Hg (Jan 29, 2:00 PM)
Average36 °F85%30.25 "Hg
* Reported Jan 16 7:00 PM — Jan 31 7:00 PM, Ashgabat, Weather by CustomWeather, © 2014

Note: Actual official high and low records may vary slightly from our data, if they occured in-between our weather recording intervals... More about our weather records

Advertising

Ashgabat weather history for previous 24 hours

 ConditionsComfort  
Time TempWeatherWind HumidityBarometerVisibility
7:00 PM
Jan 31
32 °FSnow flurries. More clouds than sun.6 mph100%30.15 "Hg3 mi
6:30 PM32 °FSnow showers. Mostly cloudy.6 mph100%30.12 "Hg1 mi
5:30 PM32 °FSnow. Low clouds.8 mph100%30.09 "Hg1 mi
3:30 PM32 °FSnow showers. Mostly cloudy.3 mph100%30.07 "Hg1 mi
3:00 PM32 °FHeavy snow. Mostly cloudy.6 mph100%30.04 "Hg1 mi
2:30 PM32 °FHeavy snow. Mostly cloudy.6 mph100%30.04 "Hg1 mi
2:00 PM34 °FSnow showers. Mostly cloudy.10 mph93%30.07 "Hg1 mi
1:30 PM36 °FSprinkles. Mostly cloudy.8 mph100%30.04 "Hg2 mi
1:00 PM37 °FSprinkles. Mostly cloudy.6 mph93%30.01 "Hg2 mi
12:30 PM37 °FSprinkles. Mostly cloudy.3 mph93%30.01 "Hg1 mi
12:00 PM37 °FSprinkles. Mostly cloudy.3 mph93%30.01 "Hg1 mi
11:30 AM37 °FSprinkles. Mostly cloudy.3 mph93%30.01 "Hg2 mi
11:00 AM37 °FSprinkles. Mostly cloudy.3 mph93%30.01 "Hg2 mi
10:30 AM37 °FRain showers. More clouds than sun.1 mph93%30.01 "Hg1 mi
10:00 AM37 °FLight rain. Overcast.No wind93%30.01 "Hg2 mi
9:30 AM37 °FRain showers. More clouds than sun.3 mph93%30.01 "Hg2 mi
9:00 AM37 °FSprinkles. Overcast.3 mph93%30.01 "Hg3 mi
8:00 AM37 °FMostly cloudy.3 mph87%29.98 "Hg5 mi
7:30 AM39 °FMostly cloudy.3 mph81%29.95 "Hg6 mi
7:00 AM37 °FMostly cloudy.3 mph87%29.98 "Hg6 mi
6:30 AM37 °FMostly cloudy.3 mph87%29.98 "Hg5 mi
6:00 AM37 °FMostly cloudy.6 mph87%29.98 "Hg6 mi
5:30 AM39 °FMostly cloudy.3 mph81%29.98 "Hg6 mi
5:00 AM39 °FMostly cloudy.3 mph87%29.98 "Hg5 mi
4:00 AM39 °FPassing clouds.6 mph87%30.01 "Hg4 mi
3:00 AM41 °FPassing clouds.1 mph87%30.01 "Hg4 mi
2:00 AM41 °FPassing clouds.3 mph87%30.04 "Hg4 mi
1:00 AM41 °FPassing clouds.No wind87%30.04 "Hg4 mi
12:00 AM41 °FPassing clouds.1 mph87%30.07 "Hg4 mi
11:00 PM
Jan 30
43 °FPassing clouds.1 mph81%30.07 "Hg4 mi
10:00 PM43 °FPartly cloudy.No wind81%30.07 "Hg5 mi
9:00 PM45 °FPassing clouds.No wind76%30.09 "Hg5 mi
Weather by CustomWeather, © 2014

See weather overviewHow to use our weather pages